Weather Roundup
Issued by NWS Chicago, IL

Home | Current Version | Previous Version | Graphics & Text | Print | Product List | Glossary On
Versions: 1 2 3 4 5 6 7 8 9 10 11 12 13 14 15 16 17 18 19 20 21 22 23 24 25 26 27 28 29 30 31 32 33 34 35 36 37 38 39 40 41 42 43 44 45 46 47 48 49 50
072
NZUS59 KLOT 231008
HRRLOT

CHICAGO AREA WEATHER ROUNDUP
NATIONAL WEATHER SERVICE CHICAGO/ROMEOVILLE IL
500 AM CDT WED MAY 23 2018

NOTE: "FAIR" INDICATES FEW OR NO CLOUDS BELOW 12,000 FEET WITH NO
SIGNIFICANT WEATHER AND/OR OBSTRUCTIONS TO VISIBILITY.

* THESE STATIONS ARE NOT UNDER NWS QUALITY CONTROL. THEY ALSO MAY NOT
  REPORT WEATHER SUCH AS PRECIPITATION OR FOG.

ILZ005-006-012>014-019>023-231100-
NORTHEAST ILLINOIS

CITY           SKY/WX    TMP DP  RH WIND       PRES   REMARKS
OHARE          MOCLDY    52  50  93 CALM      30.14R
MIDWAY         MOCLDY    53  50  89 CALM      30.14R FOG
AURORA         FOG       51  51 100 NE3       30.15R VSB 1/4
LANSING*         N/A     48  48 100 CALM      30.15R FOG
JOLIET*          N/A     50  50 100 CALM      30.15R FOG
WAUKEGAN       FOG       47  47 100 SW3       30.13R VSB 1
DUPAGE AIRPORT FOG       51  51 100 CALM      30.14R VSB 3/4
WHEELING         N/A     52  51  97 CALM      30.15R
KANKAKEE*      FOG       51  51  98 CALM      30.15R VSB 1/4
MORRIS*        FOG       53  53  97 CALM      30.14R VSB 3/4
LEWIS AIRPORT*   N/A     51  51 100 CALM      30.16R FOG
NORTHERLY ISL    N/A     51  49  92 SE1         N/A
$$

WIZ051-052-058>065-066-070>072-231100-
SOUTHEAST WISCONSIN

CITY           SKY/WX    TMP DP  RH WIND       PRES   REMARKS
MILWAUKEE      MOCLDY    56  54  93 NW6       30.13R
KENOSHA*         N/A     50  48  93 SW3       30.14R FOG
RACINE*          N/A     49  49 100 CALM      30.14R FOG
BURLINGTON     FOG       49  48  98 CALM      30.14R VSB 1/2
WAUKESHA       FOG       52  52 100 CALM      30.15R VSB 1/4
WEST BEND      MOCLDY    48  48 100 CALM      30.14R FOG
$$

INZ001>003-010>013-019-020-231100-
NORTHWEST INDIANA

CITY           SKY/WX    TMP DP  RH WIND       PRES   REMARKS
GARY*          PTCLDY    48  48 100 CALM      30.15R FOG
MICHIGAN CITY* NOT AVBL
RENSSELAER*    NOT AVBL
VALPARAISO       N/A     50  49  96 N5        30.15R FOG
$$

LMZ740>746-231100-
SOUTHERN LAKE MICHIGAN

STATION/POSITION TIME  SKY/WX   TEMP WIND        PRES    VSBY
                                AIR  DIR/SP/G
                 (UTC)          (F)  (DEG/KT/KT) (MB)    (MI)
HARRISON CRIB    0940            53  190/  5/  5   N/A
BURNHAM HARBOR   1000            52   CALM  /  4   N/A
CALUMET HARBOR   0948            49   50/  2/  3 1020.2R
BURNS HARBOR     0940            52     CALM     1021.3R
MICHIGAN CITY    0940            49   60/  3/  4   N/A
$$

ABBREVIATIONS USED IN REMARKS
   TC - TEMPERATURE IN CELSIUS
  WCI - WIND CHILL INDEX
   HX - HEAT INDEX
  VSB - VISIBILITY
$$




USA.gov is the U.S. government's official web portal to all federal, state and local government web resources and services.